FW8513 Weather Reports


Display with metric or nautical units.
time (UTC)temp
F
wind
direction
speed
MPH
gust
MPH
rain 1hr
in
rain 24hr
in
rain mn
in
humidity
%
barometer
mb
20260902031554 68 134 4.0 10.0 0.00 0.00 0.00 38 1009.1
20260902030053 69 127 4.0 8.0 0.00 0.00 0.00 36 1009.2
20260902024546 69 134 2.0 5.0 0.00 0.00 0.00 36 1009.0
20260902023048 70 136 2.0 4.0 0.00 0.00 0.00 35 1009.0
20260902021542 71 138 1.0 4.0 0.00 0.00 0.00 34 1009.0
20260902020058 73 139 1.0 4.0 0.00 0.00 0.00 33 1008.8
20260902014551 76 0 1.0 3.0 0.00 0.00 0.00 30 1008.9
20260902013044 78 140 1.0 3.0 0.00 0.00 0.00 28 1009.1
20260902011548 80 138 2.0 8.0 0.00 0.00 0.00 26 1009.3
20260902010046 81 156 3.0 10.0 0.00 0.00 0.00 25 1009.1
20260902004554 82 153 6.0 10.0 0.00 0.00 0.00 22 1009.2
20260902003052 83 159 6.0 10.0 0.00 0.00 0.00 22 1009.3
20260902001554 83 178 5.0 9.0 0.00 0.00 0.00 21 1009.3
20260902000047 84 157 3.0 9.0 0.00 0.00 0.00 20 1009.3
20260901234542 84 153 5.0 9.0 0.00 0.00 0.00 20 1009.2
20260901233100 84 174 6.0 11.0 0.00 0.00 0.00 22 1009.4
20260901231551 84 178 5.0 12.0 0.00 0.00 0.00 21 1009.6
20260901230047 84 165 6.0 11.0 0.00 0.00 0.00 21 1009.7
20260901224544 84 198 5.0 14.0 0.00 0.00 0.00 22 1010.0
20260901223048 84 207 7.0 11.0 0.00 0.00 0.00 21 1010.1
20260901221543 83 187 7.0 13.0 0.00 0.00 0.00 21 1010.3
20260901220108 83 197 8.0 14.0 0.00 0.00 0.00 21 1010.8
20260901214550 83 147 6.0 12.0 0.00 0.00 0.00 23 1010.8
20260901213049 82 139 3.0 13.0 0.00 0.00 0.00 24 1011.0
20260901211544 81 183 9.0 14.0 0.00 0.00 0.00 25 1011.1
20260901210047 81 124 7.0 19.0 0.00 0.00 0.00 26 1011.1
20260901204551 81 110 7.0 16.0 0.00 0.00 0.00 25 1011.3
20260901203047 81 126 7.0 17.0 0.00 0.00 0.00 26 1011.6
20260901201546 81 144 7.0 15.0 0.00 0.00 0.00 26 1011.5
20260901200051 80 154 6.0 17.0 0.00 0.00 0.00 28 1011.6
20260901194600 79 117 9.0 18.0 0.00 0.00 0.00 28 1011.6
20260901193058 79 150 8.0 15.0 0.00 0.00 0.00 30 1011.9
20260901191550 77 155 9.0 16.0 0.00 0.00 0.00 31 1012.1
20260901190047 76 159 6.0 17.0 0.00 0.00 0.00 31 1012.3
20260901184559 76 143 8.0 16.0 0.00 0.00 0.00 33 1012.4
20260901183051 75 150 9.0 15.0 0.00 0.00 0.00 33 1012.5
20260901181547 75 130 5.0 16.0 0.00 0.00 0.00 35 1012.8
20260901180055 73 132 7.0 15.0 0.00 0.00 0.00 37 1013.0
20260901174552 72 153 8.0 15.0 0.00 0.00 0.00 40 1013.0
20260901173051 71 159 8.0 15.0 0.00 0.00 0.00 41 1013.1
20260901171550 69 136 8.0 17.0 0.00 0.00 0.00 43 1013.4
20260901170117 68 150 9.0 19.0 0.00 0.00 0.00 45 1013.6
20260901164547 67 132 8.0 16.0 0.00 0.00 0.00 46 1013.8
20260901163053 65 151 10.0 15.0 0.00 0.00 0.00 47 1013.6
20260901161555 64 161 9.0 15.0 0.00 0.00 0.00 49 1013.5
20260901160051 62 150 7.0 16.0 0.00 0.00 0.00 51 1013.8
20260901154549 61 152 9.0 15.0 0.00 0.00 0.00 53 1013.8
20260901153053 60 152 6.0 17.0 0.00 0.00 0.00 54 1013.8
20260901151542 60 165 10.0 16.0 0.00 0.00 0.00 55 1014.0
20260901144549 59 134 6.0 15.0 0.00 0.00 0.00 57 1013.8
20260901143048 58 132 5.0 12.0 0.00 0.00 0.00 57 1013.7
20260901141543 57 135 5.0 11.0 0.00 0.00 0.00 59 1013.6
20260901140052 55 134 4.0 10.0 0.00 0.00 0.00 61 1013.4
20260901134547 53 141 3.0 8.0 0.00 0.00 0.00 63 1013.4
20260901133105 53 146 3.0 9.0 0.00 0.00 0.00 63 1013.2
20260901131548 53 144 3.0 11.0 0.00 0.00 0.00 63 1013.1
20260901130050 52 144 3.0 8.0 0.00 0.00 0.00 65 1013.1
20260901124545 51 148 5.0 10.0 0.00 0.00 0.00 65 1013.1
20260901123055 50 148 3.0 7.0 0.00 0.00 0.00 66 1013.2
20260901121553 50 146 4.0 8.0 0.00 0.00 0.00 66 1013.1
20260901120056 51 146 3.0 9.0 0.00 0.00 0.00 64 1013.2
20260901114545 52 149 3.0 7.0 0.00 0.00 0.00 64 1013.3
20260901113054 51 146 2.0 7.0 0.00 0.00 0.00 64 1013.3
20260901111556 52 151 2.0 6.0 0.00 0.00 0.00 64 1013.5
20260901110050 52 152 3.0 6.0 0.00 0.00 0.00 63 1013.7
20260901104552 52 151 3.0 7.0 0.00 0.00 0.00 63 1013.7
20260901103053 52 147 3.0 5.0 0.00 0.00 0.00 63 1013.7
20260901101550 51 147 3.0 6.0 0.00 0.00 0.00 63 1013.9
20260901094551 51 148 2.0 5.0 0.00 0.00 0.00 63 1014.1
20260901093050 52 149 0.0 3.0 0.00 0.00 0.00 63 1014.2
20260901091544 52 150 1.0 5.0 0.00 0.00 0.00 63 1014.2
20260901090054 52 0 1.0 6.0 0.00 0.00 0.00 62 1014.2
20260901084600 52 151 2.0 3.0 0.00 0.00 0.00 62 1014.2
20260901083049 52 151 1.0 5.0 0.00 0.00 0.00 62 1014.4
20260901081552 52 151 1.0 5.0 0.00 0.00 0.00 62 1014.3
20260901080055 52 152 2.0 3.0 0.00 0.00 0.00 63 1014.4
20260901074555 52 152 3.0 6.0 0.00 0.00 0.00 62 1014.6
20260901073053 53 153 3.0 6.0 0.00 0.00 0.00 61 1014.7
20260901071551 54 155 1.0 3.0 0.00 0.00 0.00 60 1014.5
20260901070049 55 155 3.0 6.0 0.00 0.00 0.00 58 1014.7
20260901064547 56 155 0.0 2.0 0.00 0.00 0.00 58 1014.8
20260901063105 56 155 2.0 6.0 0.00 0.00 0.00 57 1014.8
20260901061551 56 156 5.0 8.0 0.00 0.00 0.00 57 1015.0
20260901060056 56 150 5.0 8.0 0.00 0.00 0.00 58 1014.9
20260901054551 56 144 4.0 8.0 0.00 0.00 0.00 58 1015.2
20260901053055 55 145 2.0 6.0 0.00 0.00 0.00 58 1015.3
20260901051556 57 188 3.0 5.0 0.00 0.00 0.00 55 1015.2
20260901050052 59 198 2.0 5.0 0.00 0.00 0.00 52 1015.3
20260901044546 61 205 2.0 5.0 0.00 0.00 0.00 49 1015.2
20260901043054 62 214 4.0 11.0 0.00 0.00 0.00 48 1015.2
20260901041544 60 186 6.0 13.0 0.00 0.00 0.00 50 1015.0
20260901040054 60 143 5.0 9.0 0.00 0.00 0.00 51 1014.7
20260901034555 61 153 4.0 9.0 0.00 0.00 0.00 50 1014.5
20260901033105 61 147 4.0 8.0 0.00 0.00 0.00 49 1014.4